Regional Weather Roundup
Issued by NWS

Home | Current Version | Previous Version | Text Only | Print | Product List | Glossary On
Versions: 1 2 3 4 5 6 7 8 9 10 11 12 13 14 15 16 17 18 19 20 21 22 23 24 25 26 27 28 29 30 31 32 33 34 35 36 37 38 39 40 41 42 43 44 45 46 47 48 49 50
000
ASUS43 KLSX 270759
RWRMO

WEATHER SUMMARY FOR MISSOURI
NATIONAL WEATHER SERVICE SPRINGFIELD MO
300 AM CDT WED AUG 27 2014

NOTE: "FAIR" INDICATES FEW OR NO CLOUDS BELOW 12,000 FEET WITH NO
       SIGNIFICANT WEATHER AND/OR OBSTRUCTIONS TO VISIBILITY.
       CURRENT SKY AND/OR WEATHER CONDITIONS ARE NOT AVAILABLE FOR
       CHILLICOTHE AND FARMINGTON.

MOZ001>031-035>038-043-044-053-054-270900-
...NORTHERN AND WESTERN MISSOURI...

CITY           SKY/WX    TMP DP  RH WIND       PRES   REMARKS
KANSAS CTY INT PTCLDY    76  72  87 E12       30.08F
KANSAS C DTWN  PTCLDY    78  72  81 E12       30.07F
LEE`S SUMMIT   CLEAR     75  72  90 E7        30.10F
ST JOSEPH      PTCLDY    75  71  87 SE7       30.07F
KIRKSVILLE     CLEAR     70  67  90 E5        30.11F

$$
MOZ066>068-077>081-088>096-101>105-270900-
...SOUTHWEST MISSOURI...

CITY           SKY/WX    TMP DP  RH WIND       PRES   REMARKS
SPRINGFIELD    CLEAR     72  67  84 CALM      30.10F
JOPLIN         CLEAR     73  67  81 E5        30.09R

$$
MOZ032>034-039>042-045>050-055>058-069>072-270900-
...CENTRAL MISSOURI...

CITY           SKY/WX    TMP DP  RH WIND       PRES   REMARKS
COLUMBIA       CLEAR     75  73  93 NE3       30.09F
JEFFERSON CITY CLEAR     73  69  87 CALM      30.08F
ROLLA          CLEAR     73  67  81 S6        30.09F
SEDALIA        CLEAR     73  68  84 CALM      30.10S
OSAGE BEACH    CLEAR     70  66  88 CALM      30.10S

$$
MOZ051-052-059>065-270900-
...EAST CENTRAL MISSOURI...

CITY           SKY/WX    TMP DP  RH WIND       PRES   REMARKS
ST LOUIS INTL  PTCLDY    77  69  76 SW3       30.08S
SPIRIT OF STL  MOCLDY    73  69  87 CALM      30.07F
ST CHARLES     PTCLDY    72  69  90 CALM      30.07R

$$
MOZ072>076-082>087-097>100-106>115-270900-
...SOUTH CENTRAL AND SOUTHEAST MISSOURI...

CITY           SKY/WX    TMP DP  RH WIND       PRES   REMARKS
CAPE GIRARDEAU CLEAR     72  71  97 CALM      30.06F FOG
FARMINGTON     CLEAR     72  70  94 SW3       30.11F
POPLAR BLUFF   CLEAR     73  69  87 CALM      30.06S
WEST PLAINS    CLEAR     71  67  87 CALM      30.12F

$$


USA.gov is the U.S. government's official web portal to all federal, state and local government web resources and services.